Location: Danville Conservation Area
(38.8674°N, 91.5143°W)
Time: 10:49:45
(UTC-06:00)

ISS - Pass Details

Date: 06 December 2021
Orbit: 413 x 422 km, 51.6° (Epoch: 19 January)

Event Time Altitude Azimuth Distance (km) Brightness Sun altitude
Rises 18:40:47 0° 303° (WNW) 2,377 0.7 -22.1°
Reaches altitude 10° 18:42:56 10° 297° (WNW) 1,507 -0.3 -22.5°
Maximum altitude 18:46:10 44° 224° (SW) 596 -2.7 -23.1°
Enters shadow 18:46:12 44° 222° (SW) 596 -2.7 -23.1°
